Weather History for West Palm Beach, FL

Change the Weather History Date:

Wednesday, December 19, 2012

  Actual Average Record
Temperature  
Mean Temperature 69 °F 68 °F  
Max Temperature 81 °F 76 °F 88 °F (1989)
Min Temperature 57 °F 59 °F 39 °F (1981)
Degree Days  
Heating Degree Days 0 2  
Month to date heating degree days 0 28  
Since 1 July heating degree days 12 40  
Cooling Degree Days 4 5  
Month to date cooling degree days 186 104  
Year to date cooling degree days 4210 3970  
Growing Degree Days 19 (Base 50)    
Moisture  
Dew Point 59 °F    
Average Humidity 65    
Maximum Humidity 87    
Minimum Humidity 42    
Precipitation  
Precipitation 0.00 in 0.12 in 1.50 in (1947)
Month to date precipitation 1.12 2.04  
Year to date precipitation 78.72 60.99  
Snow  
Snow 0.00 in - - ()
Month to date snowfall 0.0  
Since 1 July snowfall 0.0  
Snow Depth 0.00 in    
Sea Level Pressure  
Sea Level Pressure 30.05 in    
Wind  
Wind Speed 5 mph (NE)    
Max Wind Speed 12 mph    
Max Gust Speed 16 mph    
Visibility 10 miles    
Events      
T = Trace of Precipitation, MM = Missing Value Source: NWS Daily Summary

Daily Weather History Graph

Daily Weather History Graph

Search for Another Location

Airport:

Trip Planner

Search our weather history database for the weather conditions in past years. The results will help you decide how hot, cold, wet, or windy it might be!

Date:

Astronomy

Dec. 19, 2012 Rise Set
Actual Time 7:03 AM EST 5:31 PM EST
Civil Twilight 6:38 AM EST 5:57 PM EST
Nautical Twilight 6:09 AM EST 6:26 PM EST
Astronomical Twilight 5:41 AM EST 6:54 PM EST
Moon 11:47 AM EST (12/19) No Moon Set
Length of Visible Light 11h 18m
Length of Day
10h 27m
Waxing Crescent, 45% of the Moon is Illuminated
Dec 19
Waxing Crescent
Dec 20
First Quarter
Dec 28
Full
Jan 4
Last Quarter
Jan 11
New

Hourly Weather History & Observations

Time (EST) Temp. Heat Index Dew Point Humidity Pressure Visibility Wind Dir Wind Speed Gust Speed Precip Events Conditions
12:53 AM 66.0 °F - 62.1 °F 87% 30.01 in 10.0 mi NW 5.8 mph - N/A   Partly Cloudy
1:53 AM 64.0 °F - 59.0 °F 84% 30.01 in 10.0 mi NNW 4.6 mph - N/A   Clear
2:53 AM 64.0 °F - 57.9 °F 80% 30.01 in 10.0 mi NW 3.5 mph - N/A   Clear
3:53 AM 62.1 °F - 57.0 °F 84% 30.01 in 10.0 mi NW 3.5 mph - N/A   Clear
4:53 AM 61.0 °F - 55.0 °F 81% 30.01 in 10.0 mi NW 5.8 mph - N/A   Clear
5:53 AM 60.1 °F - 55.0 °F 83% 30.03 in 10.0 mi NW 3.5 mph - N/A   Clear
6:53 AM 57.9 °F - 53.1 °F 84% 30.04 in 10.0 mi NW 4.6 mph - N/A   Partly Cloudy
7:53 AM 62.1 °F - 55.0 °F 78% 30.06 in 10.0 mi Calm Calm - N/A   Partly Cloudy
8:53 AM 68.0 °F - 61.0 °F 78% 30.08 in 10.0 mi Calm Calm - N/A   Partly Cloudy
9:53 AM 75.9 °F - 62.1 °F 62% 30.09 in 10.0 mi North 5.8 mph - N/A   Partly Cloudy
10:53 AM 78.8 °F - 55.4 °F 44% 30.09 in 10.0 mi Variable 3.5 mph - N/A   Scattered Clouds
11:53 AM 78.8 °F - 55.4 °F 44% 30.08 in 10.0 mi East 4.6 mph - N/A   Scattered Clouds
12:53 PM 80.6 °F 80.5 °F 55.4 °F 42% 30.05 in 10.0 mi East 4.6 mph - N/A   Scattered Clouds
1:53 PM 80.1 °F 80.6 °F 57.9 °F 47% 30.03 in 10.0 mi ENE 5.8 mph - N/A   Scattered Clouds
2:53 PM 80.1 °F 80.4 °F 57.0 °F 45% 30.03 in 10.0 mi East 8.1 mph - N/A   Scattered Clouds
3:53 PM 79.0 °F - 57.9 °F 48% 30.04 in 10.0 mi East 8.1 mph - N/A   Partly Cloudy
4:53 PM 78.1 °F - 57.9 °F 50% 30.04 in 10.0 mi ENE 8.1 mph - N/A   Partly Cloudy
5:53 PM 75.9 °F - 61.0 °F 60% 30.05 in 10.0 mi ENE 5.8 mph - N/A   Partly Cloudy
6:53 PM 75.0 °F - 63.0 °F 66% 30.06 in 10.0 mi East 6.9 mph - N/A   Partly Cloudy
7:53 PM 73.9 °F - 64.9 °F 73% 30.07 in 10.0 mi East 9.2 mph - N/A   Partly Cloudy
8:53 PM 73.9 °F - 64.0 °F 71% 30.08 in 10.0 mi East 8.1 mph - N/A   Partly Cloudy
9:53 PM 72.0 °F - 62.1 °F 71% 30.08 in 10.0 mi ESE 6.9 mph - N/A   Partly Cloudy
10:53 PM 72.0 °F - 61.0 °F 68% 30.08 in 10.0 mi ESE 6.9 mph - N/A   Partly Cloudy
11:53 PM 70.0 °F - 60.1 °F 71% 30.08 in 10.0 mi ESE 4.6 mph - N/A   Partly Cloudy